Regional Weather Roundup
Issued by NWS

Home | Current Version | Previous Version | Text Only | Print | Product List | Glossary On
Versions: 1 2 3 4 5 6 7 8 9 10 11 12 13 14 15 16 17 18 19 20 21 22 23 24 25 26 27 28 29 30 31 32 33 34 35 36 37 38 39 40 41 42 43 44 45 46 47 48
000
ASUS45 KREV 031910
RWRNV
NEVADA REGIONAL WEATHER ROUNDUP
NATIONAL WEATHER SERVICE RENO NV
1200 PM PDT THU SEP 03 2015

NOTE: "FAIR" INDICATES FEW OR NO CLOUDS BELOW 12,000 FEET WITH NO
SIGNIFICANT WEATHER AND/OR OBSTRUCTIONS TO VISIBILITY.

NVZ001-003-004-032000-
WESTERN NEVADA

CITY           SKY/WX    TMP DP  RH WIND       PRES   REMARKS
RENO           MOSUNNY   78  34  20 W12G23    29.90F
CARSON CITY    FAIR      75  32  20 W13G21    29.93F
MINDEN         FAIR      75  36  23 S13G18    29.93F
PYRAMID LAKE     N/A     75 N/A N/A S10         N/A
FALLON         MOSUNNY   79  29  16 NW7       29.87F
LOVELOCK       NOT AVBL
HAWTHORNE      SUNNY     77  30  18 NW5       29.88F
$$

NVZ002-CAZ072-073-032000-
NORTHERN AND CENTRAL SIERRA

CITY           SKY/WX    TMP DP  RH WIND       PRES   REMARKS
S. LAKE TAHOE  MOSUNNY   68  35  29 S15G26    30.03F
TRUCKEE        PTSUNNY   64  37  36 SW17G25   30.03S
SQUAW VLY 8000   N/A     54  37  54 SE10        N/A
SUSANVILLE     SUNNY     72  34  25 SW16G24   29.92F
BLUE CANYON    SUNNY     61  39  44 S17       30.04S
MAMMOTH LAKES  FAIR      72  28  20 N7G20     30.06F
BRIDGEPORT     FAIR      68  25  19 SW12G23   30.03S
$$

NVZ030-031-036-032000-
NORTHERN NEVADA

CITY           SKY/WX    TMP DP  RH WIND       PRES   REMARKS
ELKO           SUNNY     77  31  18 W7        29.90F
WINNEMUCCA     MOSUNNY   74  32  21 NW13      29.89F
WENDOVER       MOSUNNY   84  34  16 S18       29.84F
$$

NVZ035-037-032000-
CENTRAL NEVADA

CITY           SKY/WX    TMP DP  RH WIND       PRES   REMARKS
ELY            SUNNY     75  30  19 S18G28    30.00F
EUREKA           N/A     80  16   9 SW14      29.92F
$$

NVZ013-014-032000-
SOUTH CENTRAL NEVADA

CITY           SKY/WX    TMP DP  RH WIND       PRES   REMARKS
TONOPAH        SUNNY     77  20  12 S16G28    29.97F
$$

NVZ017-020-022-032000-
SOUTHERN NEVADA

CITY           SKY/WX    TMP DP  RH WIND       PRES   REMARKS
LAS VEGAS      MOSUNNY   95  34  11 SW16G23   29.79F
N. LAS VEGAS   SUNNY     94  38  14 SW13G23   29.82F
NELLIS AFB     SUNNY     94  43  16 S9G20     29.80F
HENDERSON      SUNNY     94  39  14 SW13G23   29.86F
MERCURY        SUNNY     90  27  10 SW18G35   29.89F
$$



USA.gov is the U.S. government's official web portal to all federal, state and local government web resources and services.